Location: Newark
(35.6799°N, 139.7636°E)
Time: 23:16:50
(UTC+00:00)

Altair - All Passes

Search period start: 08 December 2019 00:00
Search period end: 18 December 2019 00:00
Orbit: 1502 x 1682 km, 47.2° (Epoch: 07 December)

Date Brightness Start Highest point End Pass type
(mag) Time Alt. Az. Time Alt. Az. Time Alt. Az.
08 Dec - 09:47:17 10° S 09:54:43 25° SE 10:01:57 10° ENE visible
08 Dec - 11:48:55 10° SW 11:58:34 85° SE 12:07:54 10° ENE visible
08 Dec - 13:55:01 10° W 14:04:00 46° NNW 14:12:47 10° ENE night (unlit)
08 Dec - 16:01:47 10° WNW 16:10:29 43° N 16:19:07 10° E visible
08 Dec - 18:06:57 10° NW 18:16:11 81° NNE 18:25:27 10° ESE visible
08 Dec - 20:12:25 10° WNW 20:20:12 32° SW 20:28:07 10° S visible
09 Dec - 09:22:36 10° S 09:29:39 23° SE 09:36:30 10° E visible
09 Dec - 11:23:46 10° SW 11:33:25 80° SE 11:42:44 10° ENE visible
09 Dec - 13:29:40 10° W 13:38:44 48° NNW 13:47:35 10° ENE night (unlit)
09 Dec - 15:36:31 10° WNW 15:45:12 42° N 15:53:47 10° ENE visible
09 Dec - 17:41:46 10° NW 17:51:00 77° NNE 18:00:14 10° ESE visible
09 Dec - 19:47:05 10° WNW 19:55:08 36° SW 20:03:18 10° SSE visible
10 Dec - 08:58:02 10° SSE 09:04:35 20° SE 09:10:58 10° E visible
10 Dec - 10:58:37 10° SW 11:08:15 75° SE 11:17:34 10° ENE visible
10 Dec - 13:04:18 10° W 13:13:28 50° NNW 13:22:23 10° NE visible
10 Dec - 15:11:13 10° WNW 15:19:55 41° N 15:28:28 10° ENE night (unlit)
10 Dec - 17:16:36 10° NW 17:25:50 72° NNE 17:35:01 10° ESE visible
10 Dec - 19:21:48 10° WNW 19:30:04 39° SW 19:38:25 10° SSE visible
11 Dec - 08:33:32 10° SSE 08:39:31 18° SE 08:45:21 10° E visible
11 Dec - 10:33:29 10° SW 10:43:07 69° SE 10:52:24 10° ENE visible
11 Dec - 12:38:57 10° W 12:48:12 52° NNW 12:57:12 10° NE visible
11 Dec - 14:45:55 10° WNW 14:54:37 41° N 15:03:09 10° ENE night (unlit)
11 Dec - 16:51:25 10° NW 17:00:38 68° NNE 17:09:47 10° ESE visible
11 Dec - 18:56:32 10° WNW 19:04:59 43° SW 19:13:31 10° SSE visible
12 Dec - 08:09:12 10° SSE 08:14:27 16° SE 08:19:37 10° E visible
12 Dec - 10:08:23 10° SW 10:17:58 64° SE 10:27:13 10° ENE visible
12 Dec - 12:13:36 10° W 12:22:57 55° NNW 12:32:02 10° NE visible
12 Dec - 14:20:37 10° WNW 14:29:19 41° N 14:37:52 10° ENE night (unlit)
12 Dec - 16:26:14 10° NW 16:35:25 64° NNE 16:44:32 10° ESE visible
12 Dec - 18:31:17 10° WNW 18:39:55 47° SW 18:48:35 10° SSE visible
13 Dec - 07:45:04 10° SSE 07:49:24 14° ESE 07:53:41 10° E visible
13 Dec - 09:43:18 10° SSW 09:52:50 59° SE 10:02:01 10° ENE visible
13 Dec - 11:48:16 10° WSW 11:57:42 58° NNW 12:06:51 10° NE visible
13 Dec - 13:55:17 10° WNW 14:04:01 40° N 14:12:34 10° ENE night (unlit)
13 Dec - 16:01:04 10° NW 16:10:13 61° NNE 16:19:16 10° ESE visible
13 Dec - 18:06:03 10° WNW 18:14:49 52° SW 18:23:37 10° SSE visible
14 Dec - 07:21:17 10° SE 07:24:21 12° ESE 07:27:23 10° ESE daylight
14 Dec - 09:18:15 10° SSW 09:27:42 55° SE 09:36:49 10° ENE visible
14 Dec - 11:22:55 10° WSW 11:32:28 61° NNW 11:41:41 10° NE visible
14 Dec - 13:29:56 10° WNW 13:38:43 41° N 13:47:17 10° ENE visible
14 Dec - 15:35:52 10° NW 15:45:00 58° NNE 15:53:59 10° ESE night (unlit)
14 Dec - 17:40:49 10° WNW 17:49:43 57° SW 17:58:38 10° SSE visible
14 Dec - 19:49:56 10° WSW 19:52:57 12° WSW 19:55:57 10° SW visible
15 Dec - 08:53:13 10° SSW 09:02:35 50° SE 09:11:36 10° ENE visible
15 Dec - 10:57:36 10° WSW 11:07:13 64° NNW 11:16:31 10° NE visible
15 Dec - 13:04:36 10° WNW 13:13:25 41° N 13:22:00 10° ENE visible
15 Dec - 15:10:39 10° NW 15:19:46 55° NNE 15:28:42 10° E night (unlit)
15 Dec - 17:15:36 10° WNW 17:24:37 62° SW 17:33:37 10° SE visible
15 Dec - 19:23:43 10° W 19:27:55 14° WSW 19:32:08 10° SSW visible
16 Dec - 08:28:14 10° SSW 08:37:27 46° SE 08:46:22 10° ENE visible
16 Dec - 10:32:18 10° WSW 10:42:00 68° NNW 10:51:22 10° NE visible
16 Dec - 12:39:14 10° WNW 12:48:06 41° N 12:56:44 10° ENE visible
16 Dec - 14:45:26 10° NW 14:54:31 53° NNE 15:03:26 10° E night (unlit)
16 Dec - 16:50:24 10° WNW 16:59:31 67° SW 17:08:34 10° SE visible
16 Dec - 18:57:50 10° W 19:02:54 16° SW 19:07:58 10° SSW visible
17 Dec - 08:03:17 10° SSW 08:12:21 42° SE 08:21:07 10° ENE visible
17 Dec - 10:07:00 10° WSW 10:16:47 72° NNW 10:26:12 10° NE visible
17 Dec - 12:13:52 10° WNW 12:22:48 42° N 12:31:28 10° ENE visible
17 Dec - 14:20:12 10° NW 14:29:16 50° NNE 14:38:08 10° E night (unlit)
17 Dec - 16:25:12 10° WNW 16:34:23 72° SW 16:43:30 10° SE visible
17 Dec - 18:32:08 10° W 18:37:51 18° SW 18:43:37 10° SSW visible
